OK1VCF-8 Weather Reports


time (UTC)temp
C
wind
direction
speed
KPH
gust
KPH
rain 1hr
cm
rain 24hr
cm
rain mn
cm
humidity
%
barometer
mb
20260504224900 15 0 0.0 0.0 0.00 0.00 0.00 75 1012.8
20260504224144 14 0 0.0 0.0 0.00 0.00 0.00 74 1013.0
20260504223427 15 0 0.0 0.0 0.00 0.00 0.00 74 1013.2
20260504221003 17 0 0.0 0.0 0.00 0.00 0.00 59 1013.2
20260504220246 17 0 0.0 0.0 0.00 0.00 0.00 57 1012.4
20260504215526 17 0 0.0 0.0 0.00 0.00 0.00 59 1012.2
20260504214808 17 0 0.0 0.0 0.00 0.00 0.00 60 1012.1
20260504214050 17 0 0.0 0.0 0.00 0.00 0.00 60 1012.2
20260504213332 17 0 0.0 0.0 0.00 0.00 0.00 58 1012.8
20260504212615 17 0 0.0 0.0 0.00 0.00 0.00 56 1012.4
20260504211857 18 0 0.0 0.0 0.00 0.00 0.00 55 1012.3
20260504211140 18 0 0.0 0.0 0.00 0.00 0.00 55 1012.3
20260504210421 18 0 0.0 0.0 0.00 0.00 0.00 54 1012.5
20260504205703 18 0 0.0 0.0 0.00 0.00 0.00 54 1012.4
20260504204944 18 0 0.0 0.0 0.00 0.00 0.00 54 1012.6
20260504204224 18 0 0.0 0.0 0.00 0.00 0.00 54 1012.6
20260504203507 18 0 0.0 0.0 0.00 0.00 0.00 54 1012.5
20260504202749 18 0 0.0 0.0 0.00 0.00 0.00 54 1012.6
20260504201748 18 0 0.0 0.0 0.00 0.00 0.00 54 1012.6
20260504201030 18 0 0.0 0.0 0.00 0.00 0.00 54 1012.7
20260504200312 17 0 0.0 0.0 0.00 0.00 0.00 54 1012.6
20260504195552 17 0 0.0 0.0 0.00 0.00 0.00 52 1012.6
20260504194835 18 0 0.0 0.0 0.00 0.00 0.00 53 1012.6
20260504194116 18 0 0.0 0.0 0.00 0.00 0.00 53 1012.5
20260504193358 18 0 0.0 0.0 0.00 0.00 0.00 52 1012.6
20260504192641 18 0 0.0 0.0 0.00 0.00 0.00 52 1012.6
20260504191922 18 0 0.0 0.0 0.00 0.00 0.00 51 1012.4
20260504191203 18 0 0.0 0.0 0.00 0.00 0.00 52 1012.5
20260504190447 18 0 0.0 0.0 0.00 0.00 0.00 50 1012.5
20260504185726 19 0 0.0 0.0 0.00 0.00 0.00 50 1012.4
20260504185007 20 0 0.0 0.0 0.00 0.00 0.00 48 1012.2
20260504184250 20 0 0.0 0.0 0.00 0.00 0.00 48 1012.2
20260504183531 20 0 0.0 0.0 0.00 0.00 0.00 47 1012.2
20260504182528 20 0 0.0 0.0 0.00 0.00 0.00 46 1012.2
20260504181810 21 0 0.0 0.0 0.00 0.00 0.00 45 1012.2
20260504181052 21 0 0.0 0.0 0.00 0.00 0.00 44 1012.2
20260504180334 21 0 0.0 0.0 0.00 0.00 0.00 44 1012.2
20260504175614 21 0 0.0 0.0 0.00 0.00 0.00 42 1012.3
20260504174857 21 0 0.0 0.0 0.00 0.00 0.00 42 1012.4
20260504174139 21 0 0.0 0.0 0.00 0.00 0.00 42 1012.2
20260504173422 22 0 0.0 0.0 0.00 0.00 0.00 42 1012.1
20260504172705 22 0 0.0 0.0 0.00 0.00 0.00 42 1012.2
20260504171946 22 0 0.0 0.0 0.00 0.00 0.00 41 1012.2
20260504171228 22 0 0.0 0.0 0.00 0.00 0.00 40 1012.3
20260504170511 23 0 0.0 0.0 0.00 0.00 0.00 40 1012.2
20260504160402 24 0 0.0 0.0 0.00 0.00 0.00 38 1012.6
20260504141151 26 0 0.0 0.0 0.00 0.00 0.00 34 1013.3
20260504140429 25 0 0.0 0.0 0.00 0.00 0.00 34 1013.4
20260504110143 23 0 0.0 0.0 0.00 0.00 0.00 38 1014.8
20260504081502 19 0 0.0 0.0 0.00 0.00 0.00 44 1015.4
20260504080742 19 0 0.0 0.0 0.00 0.00 0.00 44 1015.4
20260504050344 13 0 0.0 0.0 0.00 0.00 0.00 68 1014.5
20260504045623 13 0 0.0 0.0 0.00 0.00 0.00 67 1014.2
20260504044904 13 0 0.0 0.0 0.00 0.00 0.00 66 1014.4
20260504044144 12 0 0.0 0.0 0.00 0.00 0.00 66 1014.0
20260504043425 12 0 0.0 0.0 0.00 0.00 0.00 68 1014.0
20260504042706 12 0 0.0 0.0 0.00 0.00 0.00 68 1014.2
20260504041946 12 0 0.0 0.0 0.00 0.00 0.00 66 1014.4
20260504041226 12 0 0.0 0.0 0.00 0.00 0.00 67 1014.6
20260504040510 12 0 0.0 0.0 0.00 0.00 0.00 69 1014.6
20260504035751 11 0 0.0 0.0 0.00 0.00 0.00 69 1014.5
20260504035031 11 0 0.0 0.0 0.00 0.00 0.00 69 1014.5
20260504034314 11 0 0.0 0.0 0.00 0.00 0.00 70 1014.7
20260504033556 11 0 0.0 0.0 0.00 0.00 0.00 70 1014.4
20260504032838 11 0 0.0 0.0 0.00 0.00 0.00 70 1014.3
20260504032120 11 0 0.0 0.0 0.00 0.00 0.00 68 1014.2
20260504031117 11 0 0.0 0.0 0.00 0.00 0.00 67 1014.1
20260504030358 11 0 0.0 0.0 0.00 0.00 0.00 68 1014.2
20260504025637 11 0 0.0 0.0 0.00 0.00 0.00 68 1014.2
20260504024919 11 0 0.0 0.0 0.00 0.00 0.00 69 1014.2
20260504024200 11 0 0.0 0.0 0.00 0.00 0.00 69 1014.3
20260504023441 11 0 0.0 0.0 0.00 0.00 0.00 68 1014.3
20260504022721 11 0 0.0 0.0 0.00 0.00 0.00 67 1014.4
20260504022004 11 0 0.0 0.0 0.00 0.00 0.00 66 1014.4
20260504021246 12 0 0.0 0.0 0.00 0.00 0.00 65 1014.2
20260504020525 12 0 0.0 0.0 0.00 0.00 0.00 64 1014.2
20260504015807 12 0 0.0 0.0 0.00 0.00 0.00 64 1014.1
20260504015046 12 0 0.0 0.0 0.00 0.00 0.00 64 1014.0
20260504014329 12 0 0.0 0.0 0.00 0.00 0.00 64 1014.0
20260504013611 12 0 0.0 0.0 0.00 0.00 0.00 62 1014.1
20260504012847 13 0 0.0 0.0 0.00 0.00 0.00 62 1014.1
20260504011819 13 0 0.0 0.0 0.00 0.00 0.00 60 1014.2
20260504011033 13 0 0.0 0.0 0.00 0.00 0.00 60 1014.0
20260504010248 13 0 0.0 0.0 0.00 0.00 0.00 60 1014.4
20260504004019 13 0 0.0 0.0 0.00 0.00 0.00 60 1013.9
20260504003206 13 0 0.0 0.0 0.00 0.00 0.00 59 1013.7
20260504002340 13 0 0.0 0.0 0.00 0.00 0.00 58 1013.7
20260504001524 14 0 0.0 0.0 0.00 0.00 0.00 58 1013.6
20260504000704 14 0 0.0 0.0 0.00 0.00 0.00 56 1013.6
20260503235842 14 0 0.0 0.0 0.00 0.00 0.00 56 1013.8
20260503235011 14 0 0.0 0.0 0.00 0.00 0.00 54 1013.6
20260503234157 15 0 0.0 0.0 0.00 0.00 0.00 54 1013.6
20260503233415 15 0 0.0 0.0 0.00 0.00 0.00 54 1013.4
20260503232639 15 0 0.0 0.0 0.00 0.00 0.00 52 1013.4
20260503231625 15 0 0.0 0.0 0.00 0.00 0.00 52 1013.4
20260503230907 15 0 0.0 0.0 0.00 0.00 0.00 52 1013.3
20260503230150 15 0 0.0 0.0 0.00 0.00 0.00 52 1013.3
20260503225432 15 0 0.0 0.0 0.00 0.00 0.00 52 1013.3